Tracking 20943 objects as of 16-Jul-2020
HD Live streaming from Space Station
objects crossing your sky now

ORBCOMM FM 34

Track ORBCOMM FM 34 now!
10-day predictions
ORBCOMM FM 34 is classified as:


NORAD ID: 25986
Int'l Code: 1999-065G
Perigee: 788.3 km
Apogee: 790.4 km
Inclination: 45.0 °
Period: 100.5 minutes
Semi major axis: 7160 km
RCS: 0.5409 m2 (medium)
Launch date: December 4, 1999
Source: ORBCOMM (ORB)
Launch site: AIR FORCE EASTERN TEST RANGE (AFETR)
aabbcc
Your satellite tracking list
Your tracking list is empty




NASA's NSSDC Master Catalog

Two Line Element Set (TLE):
1 25986U 99065G   20197.92056387 -.00000002 +00000-0 +50468-4 0  9998
2 25986 045.0405 278.2328 0001451 003.7163 356.3695 14.32856106077000
Source of the keplerian elements: AFSPC